Location: Brabourne
(51.1333°N, 1.0000°E)
Time: 10:47:33
(UTC+00:00)

ADEOS Rocket - Pass Details

Date: 27 October 2021
Orbit: 858 x 1307 km, 98.8° (Epoch: 26 November)

Event Time Altitude Azimuth Distance (km) Brightness Sun altitude
Exits shadow 01:05:35 15° 347° (NNW) 2,734 5.6 -47.9°
Drops below altitude 10° 01:06:32 10° 346° (NNW) 3,071 5.9 -47.8°
Sets 01:09:01 0° 346° (NNW) 3,977 6.6 -47.6°
